Tracking 17150 objects as of 5-August-2015
HD Live streaming from Space Station

CZ-4C DEB

Track CZ-4C DEB now!
10-day predictions
CZ-4C DEB is classified as:


NORAD ID: 38305
Int'l Code: 2010-009J
Perigee: 1,197.7 km
Apogee: 1,342.7 km
Inclination: 63.5 °
Period: 110.8 minutes
Semi major axis: 7641 km
RCS: 0.0013 m2 (small)
Launch date: March 5, 2010
Source: People's Republic of China (PRC)

Note: This is SATELLITE DEBRIS
Your satellite tracking list
Your tracking list is empty





NASA's NSSDC Master Catalog

Two Line Element Set (TLE):
1 38305U 10009J   15215.54834874 -.00000034  00000-0  14633-3 0  9994
2 38305 063.4967 193.2831 0094895 125.5801 336.0767 12.99744546256523

Source of the keplerian elements: AFSPC

N2YO: 550